Time,TemperatureF,DewpointF,PressureIn,WindDirection,WindDirectionDegrees,WindSpeedMPH,WindSpeedGustMPH,Humidity,HourlyPrecipIn,Conditions,Clouds,dailyrainin,SoftwareType,DateUTC
2013-01-16 00:02:00,76.5,51.0,26.99,SW,228,0.0,0.0,32,0.00,,---,0.00,VWS V14.01,2013-01-16 06:02:00,
2013-01-16 00:07:00,76.5,51.0,26.99,WSW,240,0.0,0.0,32,0.00,,---,0.00,VWS V14.01,2013-01-16 06:07:00,
2013-01-16 00:12:00,76.5,51.0,26.99,NW,308,0.0,2.2,32,0.00,,---,0.00,VWS V14.01,2013-01-16 06:12:00,
2013-01-16 00:17:00,76.5,51.0,26.99,WNW,290,0.0,0.0,32,0.00,,---,0.00,VWS V14.01,2013-01-16 06:17:00,
2013-01-16 00:22:00,76.5,51.0,26.99,West,280,0.0,0.0,32,0.00,,---,0.00,VWS V14.01,2013-01-16 06:22:00,
2013-01-16 00:27:00,76.5,51.0,26.99,SW,227,2.7,2.7,32,0.00,,---,0.00,VWS V14.01,2013-01-16 06:27:00,
2013-01-16 00:32:00,76.5,51.0,26.99,SSW,210,0.0,0.0,32,0.00,,---,0.00,VWS V14.01,2013-01-16 06:32:00,
2013-01-16 00:37:00,76.5,51.0,26.99,SSW,210,0.0,0.0,32,0.00,,---,0.00,VWS V14.01,2013-01-16 06:37:00,
2013-01-16 00:42:00,76.5,51.0,26.99,South,190,4.0,4.9,32,0.00,,---,0.00,VWS V14.01,2013-01-16 06:42:00,
2013-01-16 00:47:00,76.5,51.0,26.99,SSE,157,4.0,4.0,32,0.00,,---,0.00,VWS V14.01,2013-01-16 06:47:00,
2013-01-16 00:52:00,76.5,51.0,26.99,ENE,61,0.0,0.0,32,0.00,,---,0.00,VWS V14.01,2013-01-16 06:52:00,
2013-01-16 00:57:00,76.5,51.0,26.99,South,170,0.0,2.7,32,0.00,,---,0.00,VWS V14.01,2013-01-16 06:57:00,
2013-01-16 01:02:00,76.5,51.0,26.99,SW,217,0.0,2.2,32,0.00,,---,0.00,VWS V14.01,2013-01-16 07:02:00,
2013-01-16 01:07:00,76.5,51.0,26.99,WSW,252,0.0,0.0,32,0.00,,---,0.00,VWS V14.01,2013-01-16 07:07:00,
2013-01-16 01:12:00,76.5,51.0,26.99,WSW,246,2.7,2.7,32,0.00,,---,0.00,VWS V14.01,2013-01-16 07:12:00,
2013-01-16 01:17:00,76.5,51.0,26.99,SSW,203,0.0,2.2,32,0.00,,---,0.00,VWS V14.01,2013-01-16 07:17:00,
2013-01-16 01:22:00,76.5,51.0,26.99,WSW,253,3.1,3.1,32,0.00,,---,0.00,VWS V14.01,2013-01-16 07:22:00,
2013-01-16 01:27:00,76.5,51.0,26.96,WSW,243,0.0,0.0,32,0.00,,---,0.00,VWS V14.01,2013-01-16 07:27:00,
2013-01-16 01:32:00,76.5,51.0,26.96,SSW,194,2.2,3.1,32,0.00,,---,0.00,VWS V14.01,2013-01-16 07:32:00,
2013-01-16 01:37:00,76.5,51.0,26.96,NNW,334,2.2,2.2,32,0.00,,---,0.00,VWS V14.01,2013-01-16 07:37:00,
2013-01-16 01:42:00,76.5,51.0,26.99,SSE,166,0.0,0.0,32,0.00,,---,0.00,VWS V14.01,2013-01-16 07:42:00,
2013-01-16 01:47:00,76.5,51.0,26.99,East,84,2.7,2.7,32,0.00,,---,0.00,VWS V14.01,2013-01-16 07:47:00,
2013-01-16 01:52:00,76.5,51.0,26.99,South,169,4.9,4.9,32,0.00,,---,0.00,VWS V14.01,2013-01-16 07:52:00,
2013-01-16 01:57:00,76.5,51.0,26.99,South,171,2.7,3.6,32,0.00,,---,0.00,VWS V14.01,2013-01-16 07:57:00,
2013-01-16 02:02:00,76.5,51.0,26.99,SW,215,3.1,3.1,32,0.00,,---,0.00,VWS V14.01,2013-01-16 08:02:00,
2013-01-16 02:07:00,76.5,51.0,26.99,SSW,202,2.7,2.7,32,0.00,,---,0.00,VWS V14.01,2013-01-16 08:07:00,
2013-01-16 02:12:00,76.5,51.0,26.99,SSW,212,0.0,0.0,32,0.00,,---,0.00,VWS V14.01,2013-01-16 08:12:00,
2013-01-16 02:17:00,76.5,51.0,26.99,SSW,212,0.0,0.0,32,0.00,,---,0.00,VWS V14.01,2013-01-16 08:17:00,
2013-01-16 02:22:00,76.5,51.0,26.99,SW,222,3.1,3.1,32,0.00,,---,0.00,VWS V14.01,2013-01-16 08:22:00,
2013-01-16 02:27:00,76.5,51.0,26.99,SW,222,2.7,3.1,32,0.00,,---,0.00,VWS V14.01,2013-01-16 08:27:00,
2013-01-16 02:32:00,76.5,51.0,26.99,SW,222,2.2,2.2,32,0.00,,---,0.00,VWS V14.01,2013-01-16 08:32:00,
2013-01-16 02:37:00,76.5,51.0,26.99,SW,222,0.0,0.0,32,0.00,,---,0.00,VWS V14.01,2013-01-16 08:37:00,
2013-01-16 02:42:00,76.5,51.0,26.96,SW,224,0.0,0.0,32,0.00,,---,0.00,VWS V14.01,2013-01-16 08:42:00,
2013-01-16 02:47:00,76.5,51.0,26.96,East,85,0.0,0.0,32,0.00,,---,0.00,VWS V14.01,2013-01-16 08:47:00,
2013-01-16 02:52:00,76.5,51.0,26.96,ENE,77,0.0,2.7,32,0.00,,---,0.00,VWS V14.01,2013-01-16 08:52:00,
2013-01-16 02:57:00,76.5,51.0,26.99,SE,146,3.1,3.6,32,0.00,,---,0.00,VWS V14.01,2013-01-16 08:57:00,
2013-01-16 03:02:00,76.5,51.0,26.99,ESE,123,2.7,2.7,32,0.00,,---,0.00,VWS V14.01,2013-01-16 09:02:00,
2013-01-16 03:07:00,76.5,51.0,26.99,ESE,117,3.6,4.9,32,0.00,,---,0.00,VWS V14.01,2013-01-16 09:07:00,
2013-01-16 03:12:00,76.5,51.0,26.96,ESE,104,2.2,3.1,32,0.00,,---,0.00,VWS V14.01,2013-01-16 09:12:00,
2013-01-16 03:17:00,76.5,51.0,26.96,ESE,105,8.1,8.1,32,0.00,,---,0.00,VWS V14.01,2013-01-16 09:17:00,
2013-01-16 03:22:00,76.5,51.0,26.96,SE,124,4.0,4.0,32,0.00,,---,0.00,VWS V14.01,2013-01-16 09:22:00,
2013-01-16 03:27:00,76.5,51.0,26.99,SSE,158,6.3,6.3,32,0.00,,---,0.00,VWS V14.01,2013-01-16 09:27:00,
2013-01-16 03:32:00,76.5,51.0,26.99,ESE,112,3.6,3.6,32,0.00,,---,0.00,VWS V14.01,2013-01-16 09:32:00,
2013-01-16 03:37:00,76.5,51.0,26.99,SSE,158,5.4,5.4,32,0.00,,---,0.00,VWS V14.01,2013-01-16 09:37:00,
2013-01-16 03:42:00,76.5,51.0,26.96,ESE,121,4.9,4.9,32,0.00,,---,0.00,VWS V14.01,2013-01-16 09:42:00,
2013-01-16 03:47:00,76.5,51.0,26.96,ESE,108,4.0,5.8,32,0.00,,---,0.00,VWS V14.01,2013-01-16 09:47:00,
2013-01-16 03:52:00,76.5,51.0,26.96,ENE,61,3.1,3.1,32,0.00,,---,0.00,VWS V14.01,2013-01-16 09:52:00,
2013-01-16 03:57:00,76.5,51.0,26.96,SE,141,5.8,5.8,32,0.00,,---,0.00,VWS V14.01,2013-01-16 09:57:00,
2013-01-16 04:02:00,76.5,51.0,26.96,SSW,192,2.7,5.4,32,0.00,,---,0.00,VWS V14.01,2013-01-16 10:02:00,
2013-01-16 04:07:00,76.5,51.0,26.96,SSE,156,6.3,6.3,32,0.00,,---,0.00,VWS V14.01,2013-01-16 10:07:00,
2013-01-16 04:12:00,76.5,51.0,26.99,SE,130,6.3,7.6,32,0.00,,---,0.00,VWS V14.01,2013-01-16 10:12:00,
2013-01-16 04:17:00,76.5,51.0,26.99,SE,142,9.6,9.6,32,0.00,,---,0.00,VWS V14.01,2013-01-16 10:17:00,
2013-01-16 04:22:00,76.5,51.0,26.99,SE,143,3.1,5.8,32,0.00,,---,0.00,VWS V14.01,2013-01-16 10:22:00,
2013-01-16 04:27:00,76.5,51.0,26.96,SE,144,5.4,5.4,32,0.00,,---,0.00,VWS V14.01,2013-01-16 10:27:00,
2013-01-16 04:32:00,76.5,51.0,26.96,South,173,7.6,8.3,32,0.00,,---,0.00,VWS V14.01,2013-01-16 10:32:00,
2013-01-16 04:37:00,76.5,51.0,26.96,SSE,148,3.6,3.6,32,0.00,,---,0.00,VWS V14.01,2013-01-16 10:37:00,
2013-01-16 04:42:00,76.5,51.0,26.99,ESE,119,5.8,5.8,32,0.00,,---,0.00,VWS V14.01,2013-01-16 10:42:00,
2013-01-16 04:47:00,76.5,51.0,26.99,ESE,115,8.1,8.3,32,0.00,,---,0.00,VWS V14.01,2013-01-16 10:47:00,
2013-01-16 04:52:00,76.5,51.0,26.99,SSE,149,4.0,4.0,32,0.00,,---,0.00,VWS V14.01,2013-01-16 10:52:00,
2013-01-16 04:57:00,76.5,51.0,26.96,South,179,4.0,4.0,32,0.00,,---,0.00,VWS V14.01,2013-01-16 10:57:00,
2013-01-16 05:02:00,76.5,51.0,26.96,SE,136,3.6,4.9,32,0.00,,---,0.00,VWS V14.01,2013-01-16 11:02:00,
2013-01-16 05:07:00,76.5,51.0,26.96,SE,146,4.0,4.0,32,0.00,,---,0.00,VWS V14.01,2013-01-16 11:07:00,
2013-01-16 05:12:00,76.5,51.0,26.99,ESE,122,2.7,3.6,32,0.00,,---,0.00,VWS V14.01,2013-01-16 11:12:00,
2013-01-16 05:17:00,76.5,51.0,26.99,SE,139,4.0,4.0,32,0.00,,---,0.00,VWS V14.01,2013-01-16 11:17:00,
2013-01-16 05:22:00,76.5,51.0,26.99,SE,126,3.6,3.6,32,0.00,,---,0.00,VWS V14.01,2013-01-16 11:22:00,
2013-01-16 05:27:00,76.5,51.0,26.99,East,90,2.2,3.1,32,0.00,,---,0.00,VWS V14.01,2013-01-16 11:27:00,
2013-01-16 05:32:00,76.5,51.0,26.99,North,353,0.0,0.0,32,0.00,,---,0.00,VWS V14.01,2013-01-16 11:32:00,
2013-01-16 05:37:00,76.5,51.0,26.99,North,353,0.0,0.0,32,0.00,,---,0.00,VWS V14.01,2013-01-16 11:37:00,
2013-01-16 05:42:00,76.5,51.0,26.99,North,353,0.0,0.0,32,0.00,,---,0.00,VWS V14.01,2013-01-16 11:42:00,
2013-01-16 05:47:00,76.5,51.0,26.99,North,353,2.7,2.7,32,0.00,,---,0.00,VWS V14.01,2013-01-16 11:47:00,
2013-01-16 05:52:00,76.5,51.0,26.99,ESE,122,0.0,2.7,32,0.00,,---,0.00,VWS V14.01,2013-01-16 11:52:00,
2013-01-16 05:57:00,76.5,51.0,26.99,ENE,65,2.7,2.7,32,0.00,,---,0.00,VWS V14.01,2013-01-16 11:57:00,
2013-01-16 06:02:00,76.5,51.0,26.99,SE,129,3.1,3.1,32,0.00,,---,0.00,VWS V14.01,2013-01-16 12:02:00,
2013-01-16 06:07:00,76.5,51.0,26.99,SSE,148,4.0,5.4,32,0.00,,---,0.00,VWS V14.01,2013-01-16 12:07:00,
2013-01-16 06:12:00,76.5,51.0,26.99,SSE,147,3.6,5.8,32,0.00,,---,0.00,VWS V14.01,2013-01-16 12:12:00,
2013-01-16 06:17:00,76.5,51.0,26.99,SE,129,3.1,3.1,32,0.00,,---,0.00,VWS V14.01,2013-01-16 12:17:00,
2013-01-16 06:22:00,76.5,51.0,26.99,SE,133,5.8,10.1,32,0.00,,---,0.00,VWS V14.01,2013-01-16 12:22:00,
2013-01-16 06:27:00,76.5,51.0,27.02,SE,127,2.7,2.7,32,0.00,,---,0.00,VWS V14.01,2013-01-16 12:27:00,
2013-01-16 06:32:00,76.5,51.0,27.02,East,97,5.4,5.4,32,0.00,,---,0.00,VWS V14.01,2013-01-16 12:32:00,
2013-01-16 06:37:00,76.5,51.0,27.02,SE,145,5.4,7.6,32,0.00,,---,0.00,VWS V14.01,2013-01-16 12:37:00,
2013-01-16 06:42:00,76.5,51.0,26.99,SE,130,4.0,4.0,32,0.00,,---,0.00,VWS V14.01,2013-01-16 12:42:00,
2013-01-16 06:47:00,76.5,51.0,26.99,ENE,65,5.8,5.8,32,0.00,,---,0.00,VWS V14.01,2013-01-16 12:47:00,
2013-01-16 06:52:00,76.5,51.0,26.99,ESE,119,5.4,5.4,32,0.00,,---,0.00,VWS V14.01,2013-01-16 12:52:00,
2013-01-16 06:57:00,76.5,51.0,27.02,SE,140,2.7,4.9,32,0.00,,---,0.00,VWS V14.01,2013-01-16 12:57:00,
2013-01-16 07:02:00,76.5,51.0,27.02,NE,38,4.0,4.0,32,0.00,,---,0.00,VWS V14.01,2013-01-16 13:02:00,
2013-01-16 07:07:00,76.5,51.0,27.02,NNE,19,4.9,4.9,32,0.00,,---,0.00,VWS V14.01,2013-01-16 13:07:00,
2013-01-16 07:12:00,76.5,51.0,27.02,SE,132,4.9,4.9,32,0.00,,---,0.00,VWS V14.01,2013-01-16 13:12:00,
2013-01-16 07:17:00,76.5,51.0,27.02,SE,128,5.4,5.4,32,0.00,,---,0.00,VWS V14.01,2013-01-16 13:17:00,
2013-01-16 07:22:00,76.5,51.0,27.02,SE,138,3.6,5.4,32,0.00,,---,0.00,VWS V14.01,2013-01-16 13:22:00,
2013-01-16 07:27:00,76.5,51.0,27.02,SE,136,3.6,5.4,32,0.00,,---,0.00,VWS V14.01,2013-01-16 13:27:00,
2013-01-16 07:32:00,76.5,51.0,27.02,ENE,76,3.1,3.1,32,0.00,,---,0.00,VWS V14.01,2013-01-16 13:32:00,
2013-01-16 07:37:00,76.5,51.0,27.02,ENE,61,2.2,4.0,32,0.00,,---,0.00,VWS V14.01,2013-01-16 13:37:00,
2013-01-16 07:42:00,76.5,51.0,27.02,ESE,107,2.7,2.7,32,0.00,,---,0.00,VWS V14.01,2013-01-16 13:42:00,
2013-01-16 07:47:00,76.5,51.0,27.02,North,0,0.0,0.0,32,0.00,,---,0.00,VWS V14.01,2013-01-16 13:47:00,
2013-01-16 07:52:00,76.5,51.0,27.02,SE,132,5.4,5.8,32,0.00,,---,0.00,VWS V14.01,2013-01-16 13:52:00,
2013-01-16 07:56:00,76.5,51.0,27.05,ESE,123,3.1,4.0,32,0.00,,---,0.00,VWS V14.01,2013-01-16 13:56:00,
2013-01-16 08:01:00,76.5,51.0,27.05,SE,130,3.6,5.4,32,0.00,,---,0.00,VWS V14.01,2013-01-16 14:01:00,
2013-01-16 08:06:00,76.5,51.0,27.05,ESE,110,3.6,4.0,32,0.00,,---,0.00,VWS V14.01,2013-01-16 14:06:00,
2013-01-16 08:11:00,76.5,51.0,27.05,SE,131,4.0,10.1,32,0.00,,---,0.00,VWS V14.01,2013-01-16 14:11:00,
2013-01-16 08:16:00,76.5,51.0,27.05,SSE,148,8.3,8.3,32,0.00,,---,0.00,VWS V14.01,2013-01-16 14:16:00,
2013-01-16 08:21:00,76.5,51.0,27.05,ESE,117,3.6,6.3,32,0.00,,---,0.00,VWS V14.01,2013-01-16 14:21:00,
2013-01-16 08:26:00,76.5,51.0,27.05,ESE,107,8.3,10.5,32,0.00,,---,0.00,VWS V14.01,2013-01-16 14:26:00,
2013-01-16 08:31:00,76.5,51.0,27.05,East,98,3.1,4.0,32,0.00,,---,0.00,VWS V14.01,2013-01-16 14:31:00,
2013-01-16 08:36:00,76.5,51.0,27.05,ESE,115,5.4,5.4,32,0.00,,---,0.00,VWS V14.01,2013-01-16 14:36:00,
2013-01-16 08:41:00,76.5,51.0,27.05,ENE,78,4.0,7.6,32,0.00,,---,0.00,VWS V14.01,2013-01-16 14:41:00,
2013-01-16 08:46:00,76.5,51.0,27.05,SSE,151,2.7,10.1,32,0.00,,---,0.00,VWS V14.01,2013-01-16 14:46:00,
2013-01-16 08:51:00,76.5,51.0,27.05,SSE,161,8.1,8.1,32,0.00,,---,0.00,VWS V14.01,2013-01-16 14:51:00,
2013-01-16 08:56:00,76.5,51.0,27.05,SSE,151,5.4,6.3,32,0.00,,---,0.00,VWS V14.01,2013-01-16 14:56:00,
2013-01-16 09:01:00,76.5,51.0,27.05,East,87,4.0,4.9,32,0.00,,---,0.00,VWS V14.01,2013-01-16 15:01:00,
2013-01-16 09:06:00,76.5,51.0,27.05,ESE,122,4.0,4.0,32,0.00,,---,0.00,VWS V14.01,2013-01-16 15:06:00,
2013-01-16 09:11:00,76.5,51.0,27.05,East,92,10.5,12.8,32,0.00,,---,0.00,VWS V14.01,2013-01-16 15:11:00,
2013-01-16 09:16:00,76.5,51.0,27.05,SE,126,5.8,5.8,32,0.00,,---,0.00,VWS V14.01,2013-01-16 15:16:00,
2013-01-16 09:21:00,76.5,51.0,27.05,ESE,103,4.0,4.0,32,0.00,,---,0.00,VWS V14.01,2013-01-16 15:21:00,
2013-01-16 09:26:00,76.5,51.0,27.05,East,92,8.3,8.3,32,0.00,,---,0.00,VWS V14.01,2013-01-16 15:26:00,
2013-01-16 09:31:00,76.5,51.0,27.05,East,80,2.7,2.7,32,0.00,,---,0.00,VWS V14.01,2013-01-16 15:31:00,
2013-01-16 09:36:00,76.5,51.0,27.05,NE,45,5.8,8.1,32,0.00,,---,0.00,VWS V14.01,2013-01-16 15:36:00,
2013-01-16 09:41:00,76.5,51.0,27.02,ENE,67,5.4,5.4,32,0.00,,---,0.00,VWS V14.01,2013-01-16 15:41:00,
2013-01-16 09:46:00,76.5,51.0,27.02,NE,42,3.1,7.6,32,0.00,,---,0.00,VWS V14.01,2013-01-16 15:46:00,
2013-01-16 09:51:00,76.5,51.0,27.02,ENE,69,5.8,7.6,32,0.00,,---,0.00,VWS V14.01,2013-01-16 15:51:00,
2013-01-16 09:56:00,76.5,51.0,27.05,ENE,74,3.1,3.1,32,0.00,,---,0.00,VWS V14.01,2013-01-16 15:56:00,
2013-01-16 10:01:00,76.5,51.0,27.05,NNE,25,2.7,2.7,32,0.00,,---,0.00,VWS V14.01,2013-01-16 16:01:00,
2013-01-16 10:06:00,76.5,51.0,27.05,NE,48,3.1,3.1,32,0.00,,---,0.00,VWS V14.01,2013-01-16 16:06:00,
2013-01-16 10:11:00,76.5,51.0,27.05,East,99,5.8,5.8,32,0.00,,---,0.00,VWS V14.01,2013-01-16 16:11:00,
2013-01-16 10:16:00,76.5,51.0,27.05,ESE,114,5.8,6.3,32,0.00,,---,0.00,VWS V14.01,2013-01-16 16:16:00,
2013-01-16 10:21:00,76.5,51.0,27.05,ENE,76,8.7,8.7,32,0.00,,---,0.00,VWS V14.01,2013-01-16 16:21:00,
2013-01-16 10:26:00,76.5,51.0,27.05,South,182,0.0,3.6,32,0.00,,---,0.00,VWS V14.01,2013-01-16 16:26:00,
2013-01-16 10:31:00,76.5,51.0,27.05,ESE,108,5.4,6.3,32,0.00,,---,0.00,VWS V14.01,2013-01-16 16:31:00,
2013-01-16 10:36:00,76.5,51.0,27.05,NNE,33,2.2,2.7,32,0.00,,---,0.00,VWS V14.01,2013-01-16 16:36:00,
2013-01-16 10:41:00,76.5,51.0,27.02,North,2,3.6,6.3,32,0.00,,---,0.00,VWS V14.01,2013-01-16 16:41:00,
2013-01-16 10:46:00,76.5,51.0,27.02,East,83,6.3,6.3,32,0.00,,---,0.00,VWS V14.01,2013-01-16 16:46:00,
2013-01-16 10:51:00,76.5,51.0,27.02,SSE,160,2.2,2.2,32,0.00,,---,0.00,VWS V14.01,2013-01-16 16:51:00,
2013-01-16 10:56:00,76.5,51.0,27.05,East,93,6.3,6.3,32,0.00,,---,0.00,VWS V14.01,2013-01-16 16:56:00,
2013-01-16 11:01:00,76.5,51.0,27.05,ENE,71,2.2,2.2,32,0.00,,---,0.00,VWS V14.01,2013-01-16 17:01:00,
2013-01-16 11:06:00,76.5,51.0,27.05,NNE,18,4.0,4.0,32,0.00,,---,0.00,VWS V14.01,2013-01-16 17:06:00,
2013-01-16 11:11:00,76.5,51.0,27.02,ENE,72,0.0,0.0,32,0.00,,---,0.00,VWS V14.01,2013-01-16 17:11:00,
2013-01-16 11:16:00,76.5,51.0,27.02,NNE,14,3.1,3.1,32,0.00,,---,0.00,VWS V14.01,2013-01-16 17:16:00,
2013-01-16 11:21:00,76.5,51.0,27.02,West,270,3.1,6.3,32,0.00,,---,0.00,VWS V14.01,2013-01-16 17:21:00,
2013-01-16 11:26:00,76.5,51.0,27.02,NW,325,4.0,5.8,32,0.00,,---,0.00,VWS V14.01,2013-01-16 17:26:00,
2013-01-16 11:31:00,76.5,51.0,27.02,South,177,5.8,5.8,32,0.00,,---,0.00,VWS V14.01,2013-01-16 17:31:00,
2013-01-16 11:36:00,76.5,51.0,27.02,NNW,327,6.7,6.7,32,0.00,,---,0.00,VWS V14.01,2013-01-16 17:36:00,
2013-01-16 11:41:00,76.5,51.0,27.02,WSW,251,8.3,8.3,32,0.00,,---,0.00,VWS V14.01,2013-01-16 17:41:00,
2013-01-16 11:46:00,76.5,51.0,27.02,WSW,253,5.8,5.8,32,0.00,,---,0.00,VWS V14.01,2013-01-16 17:46:00,
2013-01-16 11:51:00,76.5,51.0,27.02,WSW,248,3.6,3.6,32,0.00,,---,0.00,VWS V14.01,2013-01-16 17:51:00,
2013-01-16 11:56:00,76.5,51.0,27.02,SSE,151,3.6,5.8,32,0.00,,---,0.00,VWS V14.01,2013-01-16 17:56:00,
2013-01-16 12:01:00,76.5,51.0,27.02,WNW,288,4.0,4.0,32,0.00,,---,0.00,VWS V14.01,2013-01-16 18:01:00,
2013-01-16 12:06:00,76.5,51.0,27.02,WNW,283,3.1,3.1,32,0.00,,---,0.00,VWS V14.01,2013-01-16 18:06:00,
2013-01-16 12:11:00,76.5,51.0,27.02,West,261,4.0,5.4,32,0.00,,---,0.00,VWS V14.01,2013-01-16 18:11:00,
2013-01-16 12:16:00,76.5,51.0,27.02,West,270,3.1,5.8,32,0.00,,---,0.00,VWS V14.01,2013-01-16 18:16:00,
2013-01-16 12:21:00,76.5,51.0,27.02,West,266,2.7,2.7,32,0.00,,---,0.00,VWS V14.01,2013-01-16 18:21:00,
2013-01-16 12:26:00,76.5,51.0,27.02,South,184,0.0,3.6,32,0.00,,---,0.00,VWS V14.01,2013-01-16 18:26:00,
2013-01-16 12:31:00,76.5,51.0,27.02,WSW,241,3.1,5.4,32,0.00,,---,0.00,VWS V14.01,2013-01-16 18:31:00,
2013-01-16 12:36:00,76.5,51.0,27.02,NW,305,4.0,4.0,32,0.00,,---,0.00,VWS V14.01,2013-01-16 18:36:00,
2013-01-16 12:41:00,76.5,51.0,26.99,SW,233,4.9,8.1,32,0.00,,---,0.00,VWS V14.01,2013-01-16 18:41:00,
2013-01-16 12:46:00,76.5,51.0,26.99,SSE,167,4.9,4.9,32,0.00,,---,0.00,VWS V14.01,2013-01-16 18:46:00,
2013-01-16 12:51:00,76.5,51.0,26.99,SW,221,2.7,3.1,32,0.00,,---,0.00,VWS V14.01,2013-01-16 18:51:00,
2013-01-16 12:56:00,76.5,51.0,26.99,SSW,202,4.0,4.9,32,0.00,,---,0.00,VWS V14.01,2013-01-16 18:56:00,
2013-01-16 13:01:00,76.5,51.0,26.99,SW,216,8.3,8.3,32,0.00,,---,0.00,VWS V14.01,2013-01-16 19:01:00,
2013-01-16 13:06:00,76.5,51.0,26.99,SSW,198,3.1,3.6,32,0.00,,---,0.00,VWS V14.01,2013-01-16 19:06:00,
2013-01-16 13:11:00,76.5,51.0,26.99,SE,145,3.1,3.1,32,0.00,,---,0.00,VWS V14.01,2013-01-16 19:11:00,
2013-01-16 13:16:00,76.5,51.0,26.99,SSW,200,3.6,3.6,32,0.00,,---,0.00,VWS V14.01,2013-01-16 19:16:00,
2013-01-16 13:21:00,76.5,51.0,26.99,NNE,32,3.6,3.6,32,0.00,,---,0.00,VWS V14.01,2013-01-16 19:21:00,
2013-01-16 13:26:00,76.5,51.0,26.99,East,91,4.9,4.9,32,0.00,,---,0.00,VWS V14.01,2013-01-16 19:26:00,
2013-01-16 13:31:00,76.5,51.0,26.99,SSE,162,0.0,0.0,32,0.00,,---,0.00,VWS V14.01,2013-01-16 19:31:00,
2013-01-16 13:36:00,76.5,51.0,26.99,East,79,3.6,3.6,32,0.00,,---,0.00,VWS V14.01,2013-01-16 19:36:00,
2013-01-16 13:41:00,76.5,51.0,26.99,NNE,32,8.7,8.7,32,0.00,,---,0.00,VWS V14.01,2013-01-16 19:41:00,
2013-01-16 13:46:00,76.5,51.0,26.99,East,79,2.7,3.6,32,0.00,,---,0.00,VWS V14.01,2013-01-16 19:46:00,
2013-01-16 13:51:00,76.5,51.0,26.99,East,101,3.6,4.0,32,0.00,,---,0.00,VWS V14.01,2013-01-16 19:51:00,
2013-01-16 13:56:00,76.5,51.0,26.99,East,100,3.1,3.1,32,0.00,,---,0.00,VWS V14.01,2013-01-16 19:56:00,
2013-01-16 14:01:00,76.5,51.0,26.99,East,83,3.1,3.1,32,0.00,,---,0.00,VWS V14.01,2013-01-16 20:01:00,
2013-01-16 14:07:00,76.5,51.0,26.99,SE,130,3.1,3.1,32,0.00,,---,0.00,VWS V14.01,2013-01-16 20:07:00,
2013-01-16 14:12:00,76.5,51.0,26.99,ENE,76,3.1,3.1,32,0.00,,---,0.00,VWS V14.01,2013-01-16 20:12:00,
2013-01-16 14:17:00,76.5,51.0,26.99,SE,124,3.6,3.6,32,0.00,,---,0.00,VWS V14.01,2013-01-16 20:17:00,
2013-01-16 14:22:00,76.5,51.0,26.99,ESE,103,6.3,6.3,32,0.00,,---,0.00,VWS V14.01,2013-01-16 20:22:00,
2013-01-16 14:27:00,76.5,51.0,26.99,SE,124,2.2,3.1,32,0.00,,---,0.00,VWS V14.01,2013-01-16 20:27:00,
2013-01-16 14:32:00,76.5,51.0,26.99,East,92,4.0,4.0,32,0.00,,---,0.00,VWS V14.01,2013-01-16 20:32:00,
2013-01-16 14:37:00,76.5,51.0,26.99,NW,308,4.0,5.4,32,0.00,,---,0.00,VWS V14.01,2013-01-16 20:37:00,
2013-01-16 14:42:00,76.5,51.0,26.99,ESE,114,3.1,8.3,32,0.00,,---,0.00,VWS V14.01,2013-01-16 20:42:00,
2013-01-16 14:47:00,76.5,51.0,26.99,ENE,76,5.4,6.3,32,0.00,,---,0.00,VWS V14.01,2013-01-16 20:47:00,
2013-01-16 14:52:00,76.5,51.0,26.99,ENE,69,4.0,5.8,32,0.00,,---,0.00,VWS V14.01,2013-01-16 20:52:00,
2013-01-16 14:57:00,76.5,51.0,26.99,ENE,57,0.0,3.1,32,0.00,,---,0.00,VWS V14.01,2013-01-16 20:57:00,
2013-01-16 15:02:00,76.5,51.0,26.99,NE,40,2.2,2.2,32,0.00,,---,0.00,VWS V14.01,2013-01-16 21:02:00,
2013-01-16 15:07:00,76.5,51.0,26.99,East,84,3.6,4.9,32,0.00,,---,0.00,VWS V14.01,2013-01-16 21:07:00,
2013-01-16 15:12:00,76.5,51.0,26.99,SE,129,4.0,5.4,32,0.00,,---,0.00,VWS V14.01,2013-01-16 21:12:00,
2013-01-16 15:17:00,76.5,51.0,26.99,East,90,0.0,0.0,32,0.00,,---,0.00,VWS V14.01,2013-01-16 21:17:00,
2013-01-16 15:22:00,76.5,51.0,26.99,East,92,3.6,5.4,32,0.00,,---,0.00,VWS V14.01,2013-01-16 21:22:00,
2013-01-16 15:27:00,76.5,51.0,26.99,ENE,67,2.7,4.0,32,0.00,,---,0.00,VWS V14.01,2013-01-16 21:27:00,
2013-01-16 15:32:00,76.5,51.0,26.99,SSE,147,2.2,3.1,32,0.00,,---,0.00,VWS V14.01,2013-01-16 21:32:00,
2013-01-16 15:37:00,76.5,51.0,26.99,SSE,147,3.6,3.6,32,0.00,,---,0.00,VWS V14.01,2013-01-16 21:37:00,
2013-01-16 15:42:00,76.5,51.0,26.99,SE,130,2.2,3.6,32,0.00,,---,0.00,VWS V14.01,2013-01-16 21:42:00,
2013-01-16 15:47:00,76.5,51.0,26.99,SE,135,4.9,4.9,32,0.00,,---,0.00,VWS V14.01,2013-01-16 21:47:00,
2013-01-16 15:52:00,76.5,51.0,26.99,SE,140,2.7,3.1,32,0.00,,---,0.00,VWS V14.01,2013-01-16 21:52:00,
2013-01-16 15:57:00,76.5,51.0,26.99,East,86,7.6,7.6,32,0.00,,---,0.00,VWS V14.01,2013-01-16 21:57:00,
2013-01-16 16:02:00,76.5,51.0,26.99,ESE,103,2.2,2.7,32,0.00,,---,0.00,VWS V14.01,2013-01-16 22:02:00,
2013-01-16 16:07:00,76.5,51.0,26.99,ESE,109,2.2,5.8,32,0.00,,---,0.00,VWS V14.01,2013-01-16 22:07:00,
2013-01-16 16:12:00,76.5,51.0,27.02,SE,132,0.0,3.6,32,0.00,,---,0.00,VWS V14.01,2013-01-16 22:12:00,
2013-01-16 16:17:00,76.5,51.0,27.02,SSE,148,0.0,4.0,32,0.00,,---,0.00,VWS V14.01,2013-01-16 22:17:00,
2013-01-16 16:22:00,76.5,51.0,27.02,SSE,153,3.6,3.6,32,0.00,,---,0.00,VWS V14.01,2013-01-16 22:22:00,
2013-01-16 16:27:00,76.5,51.0,27.02,ESE,112,4.9,4.9,32,0.00,,---,0.00,VWS V14.01,2013-01-16 22:27:00,
2013-01-16 16:32:00,76.5,51.0,27.02,ESE,106,2.7,3.6,32,0.00,,---,0.00,VWS V14.01,2013-01-16 22:32:00,
2013-01-16 16:37:00,76.5,51.0,27.02,SE,134,3.6,5.4,32,0.00,,---,0.00,VWS V14.01,2013-01-16 22:37:00,
2013-01-16 16:42:00,76.5,51.0,27.02,ESE,103,7.6,8.3,32,0.00,,---,0.00,VWS V14.01,2013-01-16 22:42:00,
2013-01-16 16:47:00,76.5,51.0,27.02,East,86,6.3,6.3,32,0.00,,---,0.00,VWS V14.01,2013-01-16 22:47:00,
2013-01-16 16:52:00,76.5,51.0,27.02,ENE,64,8.7,8.7,32,0.00,,---,0.00,VWS V14.01,2013-01-16 22:52:00,
2013-01-16 16:57:00,76.5,51.0,27.02,SE,130,2.7,6.3,32,0.00,,---,0.00,VWS V14.01,2013-01-16 22:57:00,
2013-01-16 17:02:00,76.5,51.0,27.02,East,80,4.0,5.4,32,0.00,,---,0.00,VWS V14.01,2013-01-16 23:02:00,
2013-01-16 17:07:00,76.5,51.0,27.02,East,84,5.4,5.8,32,0.00,,---,0.00,VWS V14.01,2013-01-16 23:07:00,
2013-01-16 17:12:00,76.5,51.0,27.02,SE,135,8.3,8.3,32,0.00,,---,0.00,VWS V14.01,2013-01-16 23:12:00,
2013-01-16 17:17:00,76.5,51.0,27.02,SE,131,4.0,5.8,32,0.00,,---,0.00,VWS V14.01,2013-01-16 23:17:00,
2013-01-16 17:22:00,76.5,51.0,27.02,SE,125,5.8,5.8,32,0.00,,---,0.00,VWS V14.01,2013-01-16 23:22:00,
2013-01-16 17:27:00,76.5,51.0,27.02,East,87,4.0,4.0,32,0.00,,---,0.00,VWS V14.01,2013-01-16 23:27:00,
2013-01-16 17:32:00,76.5,51.0,27.02,ESE,109,7.6,7.6,32,0.00,,---,0.00,VWS V14.01,2013-01-16 23:32:00,
2013-01-16 17:37:00,76.5,51.0,27.02,ESE,123,4.0,4.0,32,0.00,,---,0.00,VWS V14.01,2013-01-16 23:37:00,
2013-01-16 17:42:00,76.5,51.0,27.05,East,98,3.6,6.3,32,0.00,,---,0.00,VWS V14.01,2013-01-16 23:42:00,
2013-01-16 17:47:00,76.5,51.0,27.05,ENE,76,5.8,8.1,32,0.00,,---,0.00,VWS V14.01,2013-01-16 23:47:00,
2013-01-16 17:52:00,76.5,51.0,27.05,East,82,2.7,5.8,32,0.00,,---,0.00,VWS V14.01,2013-01-16 23:52:00,
2013-01-16 17:57:00,76.5,51.0,27.05,ESE,107,3.6,3.6,32,0.00,,---,0.00,VWS V14.01,2013-01-16 23:57:00,
2013-01-16 18:02:00,76.5,51.0,27.05,SE,136,3.6,3.6,32,0.00,,---,0.00,VWS V14.01,2013-01-17 00:02:00,
2013-01-16 18:07:00,76.5,51.0,27.05,ESE,122,3.1,4.0,32,0.00,,---,0.00,VWS V14.01,2013-01-17 00:07:00,
2013-01-16 18:12:00,76.5,51.0,27.05,SE,146,8.3,8.3,32,0.00,,---,0.00,VWS V14.01,2013-01-17 00:12:00,
2013-01-16 18:17:00,76.5,51.0,27.05,East,97,4.0,4.0,32,0.00,,---,0.00,VWS V14.01,2013-01-17 00:17:00,
2013-01-16 18:22:00,76.5,51.0,27.05,SE,126,5.4,8.1,32,0.00,,---,0.00,VWS V14.01,2013-01-17 00:22:00,
2013-01-16 18:27:00,76.5,51.0,27.05,SE,143,3.1,3.1,32,0.00,,---,0.00,VWS V14.01,2013-01-17 00:27:00,
2013-01-16 18:32:00,76.5,51.0,27.05,SE,142,6.3,6.3,32,0.00,,---,0.00,VWS V14.01,2013-01-17 00:32:00,
2013-01-16 18:37:00,76.5,51.0,27.05,SE,124,8.1,8.1,32,0.00,,---,0.00,VWS V14.01,2013-01-17 00:37:00,
2013-01-16 18:42:00,76.5,51.0,27.05,East,97,3.6,5.8,32,0.00,,---,0.00,VWS V14.01,2013-01-17 00:42:00,
2013-01-16 18:47:00,76.5,51.0,27.05,SE,135,3.1,5.8,32,0.00,,---,0.00,VWS V14.01,2013-01-17 00:47:00,
2013-01-16 18:52:00,76.5,51.0,27.05,ENE,76,8.1,8.1,32,0.00,,---,0.00,VWS V14.01,2013-01-17 00:52:00,
2013-01-16 18:57:00,76.5,51.0,27.05,ENE,70,14.5,14.5,32,0.00,,---,0.00,VWS V14.01,2013-01-17 00:57:00,
2013-01-16 19:02:00,76.5,51.0,27.05,ESE,118,4.0,7.6,32,0.00,,---,0.00,VWS V14.01,2013-01-17 01:02:00,
2013-01-16 19:07:00,76.5,51.0,27.05,East,101,6.3,8.1,32,0.00,,---,0.00,VWS V14.01,2013-01-17 01:07:00,
2013-01-16 19:12:00,76.5,51.0,27.05,SE,136,5.8,6.3,32,0.00,,---,0.00,VWS V14.01,2013-01-17 01:12:00,
2013-01-16 19:17:00,76.5,51.0,27.05,ESE,123,6.3,6.3,32,0.00,,---,0.00,VWS V14.01,2013-01-17 01:17:00,
2013-01-16 19:22:00,76.5,51.0,27.05,ESE,103,6.3,9.2,32,0.00,,---,0.00,VWS V14.01,2013-01-17 01:22:00,
2013-01-16 19:27:00,76.5,51.0,27.05,SE,125,4.0,8.3,32,0.00,,---,0.00,VWS V14.01,2013-01-17 01:27:00,
2013-01-16 19:32:00,76.5,51.0,27.05,SE,143,5.8,5.8,32,0.00,,---,0.00,VWS V14.01,2013-01-17 01:32:00,
2013-01-16 19:37:00,76.5,51.0,27.05,East,92,5.8,6.3,32,0.00,,---,0.00,VWS V14.01,2013-01-17 01:37:00,
2013-01-16 19:42:00,76.5,51.0,27.05,East,87,5.8,5.8,32,0.00,,---,0.00,VWS V14.01,2013-01-17 01:42:00,
2013-01-16 19:47:00,76.5,51.0,27.05,ESE,102,5.4,8.3,32,0.00,,---,0.00,VWS V14.01,2013-01-17 01:47:00,
2013-01-16 19:52:00,76.5,51.0,27.05,ESE,118,5.4,5.8,32,0.00,,---,0.00,VWS V14.01,2013-01-17 01:52:00,
2013-01-16 19:57:00,76.5,51.0,27.05,East,97,10.1,10.1,32,0.00,,---,0.00,VWS V14.01,2013-01-17 01:57:00,
2013-01-16 20:02:00,76.5,51.0,27.05,ESE,116,4.0,9.6,32,0.00,,---,0.00,VWS V14.01,2013-01-17 02:02:00,
2013-01-16 20:07:00,76.5,51.0,27.05,SE,141,5.4,8.1,32,0.00,,---,0.00,VWS V14.01,2013-01-17 02:07:00,
2013-01-16 20:12:00,76.5,51.0,27.08,SSE,147,12.8,12.8,32,0.00,,---,0.00,VWS V14.01,2013-01-17 02:12:00,
2013-01-16 20:17:00,76.5,51.0,27.08,East,100,6.3,6.7,32,0.00,,---,0.00,VWS V14.01,2013-01-17 02:17:00,
2013-01-16 20:22:00,76.5,51.0,27.08,ESE,122,4.9,4.9,32,0.00,,---,0.00,VWS V14.01,2013-01-17 02:22:00,
2013-01-16 20:27:00,76.5,51.0,27.05,SSE,162,5.8,5.8,32,0.00,,---,0.00,VWS V14.01,2013-01-17 02:27:00,
2013-01-16 20:32:00,76.5,51.0,27.05,SE,131,3.6,14.1,32,0.00,,---,0.00,VWS V14.01,2013-01-17 02:32:00,
2013-01-16 20:37:00,76.5,51.0,27.05,SE,146,7.6,14.1,32,0.00,,---,0.00,VWS V14.01,2013-01-17 02:37:00,
2013-01-16 20:42:00,76.5,51.0,27.05,East,87,5.8,6.3,32,0.00,,---,0.00,VWS V14.01,2013-01-17 02:42:00,
2013-01-16 20:47:00,76.5,51.0,27.05,East,93,5.8,12.3,32,0.00,,---,0.00,VWS V14.01,2013-01-17 02:47:00,
2013-01-16 20:52:00,76.5,51.0,27.05,SE,140,4.0,5.4,32,0.00,,---,0.00,VWS V14.01,2013-01-17 02:52:00,
2013-01-16 20:57:00,76.5,51.0,27.05,ESE,117,4.9,6.3,32,0.00,,---,0.00,VWS V14.01,2013-01-17 02:57:00,
2013-01-16 21:02:00,76.5,51.0,27.05,ENE,78,4.5,5.4,32,0.00,,---,0.00,VWS V14.01,2013-01-17 03:02:00,
2013-01-16 21:07:00,76.5,51.0,27.05,SE,128,4.9,5.8,32,0.00,,---,0.00,VWS V14.01,2013-01-17 03:07:00,
2013-01-16 21:12:00,76.5,51.0,27.05,SE,128,3.6,11.0,32,0.00,,---,0.00,VWS V14.01,2013-01-17 03:12:00,
2013-01-16 21:17:00,76.5,51.0,27.05,SE,136,4.0,5.8,32,0.00,,---,0.00,VWS V14.01,2013-01-17 03:17:00,
2013-01-16 21:22:00,76.5,51.0,27.05,South,180,10.1,10.1,32,0.00,,---,0.00,VWS V14.01,2013-01-17 03:22:00,
2013-01-16 21:27:00,76.5,51.0,27.05,SE,128,5.4,5.4,32,0.00,,---,0.00,VWS V14.01,2013-01-17 03:27:00,
2013-01-16 21:32:00,76.5,51.0,27.05,SE,127,3.1,7.6,32,0.00,,---,0.00,VWS V14.01,2013-01-17 03:32:00,
2013-01-16 21:37:00,76.5,51.0,27.05,ESE,104,5.8,8.3,32,0.00,,---,0.00,VWS V14.01,2013-01-17 03:37:00,
2013-01-16 21:42:00,76.5,51.0,27.05,East,88,4.0,10.1,32,0.00,,---,0.00,VWS V14.01,2013-01-17 03:42:00,
2013-01-16 21:47:00,76.5,51.0,27.05,NE,36,8.1,8.7,32,0.00,,---,0.00,VWS V14.01,2013-01-17 03:47:00,
2013-01-16 21:52:00,76.5,51.0,27.05,ENE,75,4.0,5.8,32,0.00,,---,0.00,VWS V14.01,2013-01-17 03:52:00,
2013-01-16 21:57:00,76.5,51.0,27.05,ESE,120,5.8,5.8,32,0.00,,---,0.00,VWS V14.01,2013-01-17 03:57:00,
2013-01-16 22:02:00,76.5,51.0,27.05,SE,143,6.3,8.3,32,0.00,,---,0.00,VWS V14.01,2013-01-17 04:02:00,
2013-01-16 22:07:00,76.5,51.0,27.05,SE,143,18.8,18.8,32,0.00,,---,0.00,VWS V14.01,2013-01-17 04:07:00,
2013-01-16 22:12:00,76.5,51.0,27.05,SE,131,5.4,8.7,32,0.00,,---,0.00,VWS V14.01,2013-01-17 04:12:00,
2013-01-16 22:17:00,76.5,51.0,27.05,East,91,9.6,9.6,32,0.00,,---,0.00,VWS V14.01,2013-01-17 04:17:00,
2013-01-16 22:22:00,76.5,51.0,27.05,SE,133,5.4,5.4,32,0.00,,---,0.00,VWS V14.01,2013-01-17 04:22:00,
2013-01-16 22:27:00,76.5,51.0,27.02,ESE,120,4.9,5.8,32,0.00,,---,0.00,VWS V14.01,2013-01-17 04:27:00,
2013-01-16 22:32:00,76.5,51.0,27.02,SE,138,11.0,11.0,32,0.00,,---,0.00,VWS V14.01,2013-01-17 04:32:00,
2013-01-16 22:37:00,76.5,51.0,27.02,SE,128,10.5,10.5,32,0.00,,---,0.00,VWS V14.01,2013-01-17 04:37:00,
2013-01-16 22:42:00,76.5,51.0,27.02,SE,135,5.4,6.3,32,0.00,,---,0.00,VWS V14.01,2013-01-17 04:42:00,
2013-01-16 22:47:00,76.5,51.0,27.02,ESE,118,8.3,8.3,32,0.00,,---,0.00,VWS V14.01,2013-01-17 04:47:00,
2013-01-16 22:52:00,76.5,51.0,27.02,SSE,155,8.7,8.7,32,0.00,,---,0.00,VWS V14.01,2013-01-17 04:52:00,
2013-01-16 22:57:00,76.5,51.0,27.02,SE,125,7.6,7.6,32,0.00,,---,0.00,VWS V14.01,2013-01-17 04:57:00,
2013-01-16 23:00:00,76.5,51.0,27.02,ESE,106,12.8,12.8,32,0.00,,---,0.00,VWS V14.01,2013-01-17 05:00:00,
2013-01-16 23:01:00,76.5,51.0,27.02,ENE,77,10.1,10.1,32,0.00,,---,0.00,VWS V14.01,2013-01-17 05:01:00,
2013-01-16 23:03:00,76.5,51.0,27.02,ESE,119,3.1,10.1,32,0.00,,---,0.00,VWS V14.01,2013-01-17 05:03:00,
2013-01-16 23:08:00,76.5,51.0,27.02,SE,136,3.1,4.0,32,0.00,,---,0.00,VWS V14.01,2013-01-17 05:08:00,
2013-01-16 23:13:00,76.5,51.0,27.02,SE,131,4.9,9.6,32,0.00,,---,0.00,VWS V14.01,2013-01-17 05:13:00,
2013-01-16 23:18:00,76.5,51.0,27.02,East,88,4.0,6.3,32,0.00,,---,0.00,VWS V14.01,2013-01-17 05:18:00,
2013-01-16 23:23:00,76.5,51.0,27.02,SE,130,4.9,8.7,32,0.00,,---,0.00,VWS V14.01,2013-01-17 05:23:00,
2013-01-16 23:28:00,76.5,51.0,27.02,SSE,153,8.3,8.3,32,0.00,,---,0.00,VWS V14.01,2013-01-17 05:28:00,
2013-01-16 23:33:00,76.5,51.0,27.02,SE,128,5.4,6.3,32,0.00,,---,0.00,VWS V14.01,2013-01-17 05:33:00,
2013-01-16 23:38:00,76.5,51.0,27.02,SE,142,11.0,14.1,32,0.00,,---,0.00,VWS V14.01,2013-01-17 05:38:00,
2013-01-16 23:43:00,76.5,51.0,27.02,SE,130,6.3,6.3,32,0.00,,---,0.00,VWS V14.01,2013-01-17 05:43:00,
2013-01-16 23:48:00,76.5,51.0,27.02,ESE,112,6.3,10.5,32,0.00,,---,0.00,VWS V14.01,2013-01-17 05:48:00,
2013-01-16 23:53:00,76.5,51.0,27.05,SE,126,8.1,8.1,32,0.00,,---,0.00,VWS V14.01,2013-01-17 05:53:00,
2013-01-16 23:58:00,76.5,51.0,27.05,SE,126,6.3,6.3,32,0.00,,---,0.00,VWS V14.01,2013-01-17 05:58:00,